[[{"header":{"parameterUnit":"m.s-1","parameterCategory":1,"la1":30.2991,"la2":30.254,"lo1":-89.0895,"lo2":-89.0444,"dy":0.0017,"dx":0.0017,"nx":28,"ny":28,"refTime":"2024-02-24T09:00:00:Z","depth":0,"parameterNumber":2,"parameterNumberName":"U-component_of_WINDS"},"data":[0,0,0,0,0,0,0,0,0,0,0,0,0,0,0,0,0,0,0,0,0,0,0,0,0,0,0,0,0,0,0,0,0,0,0,0,0,0,0,0,0,0,0,0,0,0,0,0,0,0,0,0,0,0,0,0,0,0,2.1252,2.1252,0,2.1271,2.1271,2.1272,2.1239,2.1237,2.1236,2.1235,2.1256,2.1257,2.1259,0,0,0,0,0,0,0,0,0,0,0,0,0,2.1189,2.119,2.1252,2.1252,2.1253,2.1271,2.1271,2.1272,2.1239,2.1237,2.1236,2.1235,2.1255,2.1257,2.1259,0,0,0,0,0,0,0,0,0,0,0,0,0,2.1213,2.1191,2.1252,2.1238,2.1237,2.1271,2.1271,2.1272,2.1239,2.1237,2.1236,2.1234,2.1254,2.1257,2.1259,2.1307,0,0,2.1266,2.1267,0,0,0,0,0,0,0,0,2.1212,2.1215,2.124,2.1239,2.1238,2.1251,2.1257,2.1284,2.1239,2.1238,2.1235,2.1233,2.1255,2.1258,2.1265,2.1308,2.1309,2.1267,2.1268,2.1269,2.127,0,0,0,0,0,0,0,2.121,2.1214,2.126,2.1241,2.1239,2.1232,2.1233,2.1262,2.1256,2.1238,2.1236,2.1239,2.1255,2.1263,2.1265,2.1309,2.1266,2.1269,2.127,2.1271,2.1395,2.1397,0,0,0,0,0,0,2.121,2.1213,2.1259,2.126,2.1221,2.1234,2.1236,2.1248,2.1256,2.1255,2.124,2.1237,2.1259,2.1262,2.1266,2.1324,2.1269,2.1271,2.1273,2.1393,2.1395,2.1397,0,0,0,0,0,0,2.1209,2.1214,2.1258,2.1236,2.1241,2.1237,2.1251,2.125,2.1258,2.1257,2.1256,2.1249,2.1258,2.1262,2.1298,2.1324,2.1272,2.1274,2.1391,2.1394,2.1396,2.144,0,0,0,0,0,0,2.1207,2.1214,2.1232,2.1237,2.1242,2.1289,2.1253,2.1251,2.1262,2.1258,2.1265,2.1265,2.1257,2.1294,2.13,2.1326,2.1276,2.1389,2.1392,2.1396,2.1436,2.1444,2.145,0,0,0,0,0,2.1205,2.1243,2.1233,2.1239,2.1265,2.1291,2.1294,2.1284,2.1264,2.1282,2.1282,2.1265,2.132,2.1298,2.1304,2.1332,2.1387,2.1391,2.1395,2.1433,2.1442,2.145,0,0,0,0,0,0,2.1241,2.1243,2.1232,2.1273,2.1282,2.1285,2.1308,2.1294,2.131,2.1305,2.1293,2.1295,2.1333,2.1336,2.1311,2.138,2.135,2.1356,2.1376,2.1385,2.1392,2.1391,2.1278,0,0,0,0,0,2.1254,2.1275,2.1276,2.1312,2.1317,2.1312,2.1323,2.1315,2.1324,2.1327,2.1329,2.1339,2.1359,2.1372,2.139,2.1436,2.1438,2.1458,2.1465,2.1471,2.1476,2.1502,2.1512,2.1411,2.1411,2.1411,0,0,2.1281,2.1285,2.1299,2.1319,2.1325,2.1348,2.1315,2.134,2.1357,2.1331,2.1365,2.1367,2.1377,2.1418,2.1436,2.1422,2.1505,2.1476,2.1481,2.1483,2.1508,2.1517,2.1526,2.1414,2.1414,2.1413,0,0,2.1341,2.1346,2.1377,2.1384,2.1393,2.139,2.1398,2.1403,2.1404,2.1437,2.1418,2.1439,2.1472,2.1481,2.149,2.1555,2.154,2.1561,2.1599,2.1624,2.1632,2.1639,2.1663,2.1672,2.1566,2.1566,2.1566,0,2.1373,2.1406,2.1395,2.1421,2.1432,2.1409,2.1441,2.1449,2.1464,2.1472,2.1455,2.1498,2.1503,2.1547,2.1563,2.157,2.1579,2.156,2.1632,2.1639,2.1645,2.1668,2.1677,2.1569,2.1568,2.1568,2.1568,0,2.1446,2.1469,2.1493,2.1509,2.1522,2.1551,2.1545,2.1559,2.155,2.1549,2.1584,2.1589,2.1609,2.1618,2.1609,2.1661,2.1652,2.1634,2.1604,2.1657,2.1679,2.1688,2.1572,2.1571,2.1571,2.157,0,0,2.153,2.1539,2.1548,2.1556,2.1565,2.1583,2.1612,2.1631,2.1644,2.1656,2.168,2.171,2.1694,2.1704,2.1695,2.1718,2.1771,2.1697,2.1697,2.1711,2.183,2.1844,2.1854,2.1761,2.1762,2.1764,2.1829,0,2.159,2.164,2.1631,2.1679,2.1701,2.1681,2.1706,2.1715,2.1715,2.1734,2.1734,2.1756,2.1732,2.1738,2.1759,2.176,2.1794,2.1755,2.1784,2.1786,2.1783,2.1866,2.1881,2.1942,2.1838,2.1839,2.184,0,2.1668,2.1683,2.1734,2.1741,2.175,2.1773,2.179,2.1808,2.1819,2.1817,2.1829,2.1817,2.1847,2.1816,2.1858,2.1831,2.1843,2.1845,2.1847,2.185,2.1817,2.1872,2.1961,2.1971,2.1853,2.1852,2.1851,0,2.1726,2.1758,2.1793,2.18,2.1809,2.1826,2.183,2.1839,2.1851,2.1867,2.1875,2.1893,2.1904,2.1919,2.1913,2.1891,2.1956,2.1925,2.1957,2.1957,2.1972,2.1971,2.2066,2.1978,2.1978,2.1978,2.1977,0,2.1795,2.1827,2.1819,2.1841,2.1877,2.1866,2.1902,2.1905,2.1913,2.1935,2.1918,2.194,2.193,2.1951,2.1947,2.1983,2.1987,2.1987,2.1986,2.1989,2.199,2.1997,2.1993,2.198,2.1979,2.1979,2.1979,0,2.1865,2.1861,2.1898,2.1904,2.1906,2.1933,2.1938,2.1959,2.1957,2.1986,2.1992,2.199,2.2014,2.201,2.2036,2.2033,2.2079,2.2071,2.2075,2.2074,2.2106,2.2104,2.221,2.2224,2.2126,2.2127,2.2128,0,2.191,2.1935,2.1944,2.1957,2.1964,2.1986,2.1999,2.199,2.2004,2.2018,2.2038,2.206,2.2078,2.2117,2.2119,2.2139,2.2133,2.2169,2.2136,2.214,2.2135,2.2134,2.2137,2.2176,2.2177,2.2178,2.2179,0,2.1991,2.1988,2.2007,2.2026,2.2042,2.2056,2.2069,2.2081,2.2074,2.2091,2.2115,2.2129,2.2156,2.218,2.2199,2.2204,2.2191,2.2189,2.2198,2.2202,2.2204,2.2204,2.2094,2.2187,2.2186,2.2185,2.2185,2.2184,2.2051,2.2073,2.2082,2.2105,2.2113,2.2126,2.2146,2.2148,2.2168,2.219,2.2183,2.2211,2.2222,2.2247,2.2255,2.2277,2.2264,2.2276,2.228,2.2283,2.2288,2.2199,2.2281,2.2281,2.228,2.228,2.228,0,2.2132,2.2138,2.2158,2.2177,2.2195,2.218,2.2194,2.221,2.2235,2.2246,2.2264,2.2293,2.2316,2.232,2.2341,2.2359,2.2353,2.2365,2.2364,2.2366,2.2298,2.2289,2.2369,2.2369,2.2369,2.2369,2.2369,2.2369,2.2177,2.2212,2.2211,2.2251,2.2257,2.2284,2.2294,2.2306,2.2315,2.2348,2.2367,2.2369,2.2377,2.24,2.2421,2.2421,2.243,2.2445,2.2443,2.2379,2.2371,2.2362,2.2354,2.2447,2.2447,2.251,2.251,2.2511]},{"header":{"parameterUnit":"m.s-1","parameterCategory":1,"la1":30.2991,"la2":30.254,"lo1":-89.0895,"lo2":-89.0444,"dy":0.0017,"dx":0.0017,"nx":28,"ny":28,"refTime":"2024-02-24T09:00:00:Z","depth":0,"parameterNumber":3,"parameterNumberName":"V-component_of_WINDS"},"data":[0,0,0,0,0,0,0,0,0,0,0,0,0,0,0,0,0,0,0,0,0,0,0,0,0,0,0,0,0,0,0,0,0,0,0,0,0,0,0,0,0,0,0,0,0,0,0,0,0,0,0,0,0,0,0,0,0,0,-2.8112,-2.8112,0,-2.8157,-2.8158,-2.8158,-2.8157,-2.8156,-2.8156,-2.8155,-2.8205,-2.8207,-2.8209,0,0,0,0,0,0,0,0,0,0,0,0,0,-2.8028,-2.8029,-2.8112,-2.8112,-2.8113,-2.8157,-2.8158,-2.8158,-2.8157,-2.8156,-2.8155,-2.8155,-2.8205,-2.8207,-2.8209,0,0,0,0,0,0,0,0,0,0,0,0,0,-2.8068,-2.803,-2.8112,-2.8118,-2.8118,-2.8157,-2.8158,-2.8158,-2.8157,-2.8156,-2.8155,-2.8154,-2.8204,-2.8207,-2.8209,-2.8246,0,0,-2.8218,-2.822,0,0,0,0,0,0,0,0,-2.8066,-2.8071,-2.8116,-2.8117,-2.8118,-2.815,-2.8146,-2.8188,-2.8157,-2.8143,-2.8155,-2.8154,-2.8188,-2.8192,-2.8203,-2.8249,-2.8251,-2.8219,-2.822,-2.8222,-2.8222,0,0,0,0,0,0,0,-2.8063,-2.8069,-2.813,-2.8117,-2.8118,-2.8119,-2.8124,-2.8154,-2.817,-2.8144,-2.8144,-2.8149,-2.8188,-2.82,-2.8204,-2.8251,-2.8218,-2.8221,-2.8223,-2.8224,-2.833,-2.8331,0,0,0,0,0,0,-2.8058,-2.8067,-2.8128,-2.8131,-2.8089,-2.8121,-2.8127,-2.8141,-2.817,-2.8173,-2.815,-2.8149,-2.8196,-2.8201,-2.8206,-2.8251,-2.8221,-2.8224,-2.8226,-2.8329,-2.8331,-2.8332,0,0,0,0,0,0,-2.8057,-2.8064,-2.8127,-2.8099,-2.8107,-2.8124,-2.814,-2.8142,-2.8154,-2.8174,-2.8177,-2.8158,-2.8195,-2.8202,-2.8236,-2.8253,-2.8225,-2.8228,-2.8328,-2.833,-2.8331,-2.8342,0,0,0,0,0,0,-2.8054,-2.8063,-2.8077,-2.8099,-2.8109,-2.8155,-2.8141,-2.8144,-2.8159,-2.8158,-2.8183,-2.8187,-2.8195,-2.8232,-2.8239,-2.8256,-2.823,-2.8327,-2.8329,-2.8331,-2.834,-2.8343,-2.8346,0,0,0,0,0,-2.8051,-2.8078,-2.8077,-2.8085,-2.8125,-2.8156,-2.8161,-2.8169,-2.816,-2.8174,-2.8187,-2.8186,-2.825,-2.8235,-2.8243,-2.8262,-2.8326,-2.8328,-2.8331,-2.8338,-2.8343,-2.8346,0,0,0,0,0,0,-2.8059,-2.8081,-2.808,-2.8115,-2.8134,-2.8156,-2.8174,-2.8173,-2.8196,-2.8194,-2.8204,-2.821,-2.8244,-2.8256,-2.824,-2.8299,-2.8287,-2.8291,-2.829,-2.8294,-2.8297,-2.8294,-2.8233,0,0,0,0,0,-2.8064,-2.8086,-2.8105,-2.8134,-2.8143,-2.8157,-2.8171,-2.8175,-2.8195,-2.8203,-2.8218,-2.8238,-2.8263,-2.8279,-2.8303,-2.8341,-2.8348,-2.8358,-2.8361,-2.8364,-2.8368,-2.839,-2.8395,-2.834,-2.834,-2.834,0,0,-2.8076,-2.8091,-2.8105,-2.8136,-2.8151,-2.8174,-2.8163,-2.8189,-2.8207,-2.8207,-2.824,-2.8252,-2.8276,-2.8312,-2.8329,-2.8323,-2.8384,-2.8367,-2.8369,-2.8371,-2.8393,-2.8398,-2.8402,-2.8342,-2.8341,-2.8341,0,0,-2.811,-2.8123,-2.8149,-2.8163,-2.8185,-2.8194,-2.82,-2.8222,-2.823,-2.8263,-2.8264,-2.8286,-2.8328,-2.8345,-2.8359,-2.8399,-2.8399,-2.8406,-2.8424,-2.8445,-2.8449,-2.8453,-2.8468,-2.8473,-2.841,-2.841,-2.841,0,-2.8122,-2.8156,-2.8163,-2.8188,-2.8202,-2.8202,-2.8229,-2.8243,-2.8272,-2.8283,-2.8276,-2.8328,-2.8344,-2.8385,-2.8394,-2.8406,-2.8414,-2.8404,-2.8448,-2.8452,-2.8455,-2.847,-2.8475,-2.8411,-2.841,-2.841,-2.841,0,-2.8171,-2.8195,-2.8213,-2.824,-2.8256,-2.8282,-2.8293,-2.8309,-2.8312,-2.8322,-2.8357,-2.8375,-2.8403,-2.8413,-2.8416,-2.8454,-2.845,-2.8445,-2.8433,-2.8461,-2.8475,-2.8481,-2.8412,-2.8411,-2.8411,-2.8411,0,0,-2.8211,-2.824,-2.8247,-2.8259,-2.8283,-2.8302,-2.8329,-2.8354,-2.8368,-2.8388,-2.8411,-2.8447,-2.8442,-2.8458,-2.8464,-2.8482,-2.8514,-2.8475,-2.8476,-2.8482,-2.8557,-2.8561,-2.8567,-2.8513,-2.8515,-2.8515,-2.8556,0,-2.8248,-2.8293,-2.8299,-2.834,-2.8363,-2.8363,-2.8386,-2.8404,-2.8414,-2.8436,-2.8447,-2.8472,-2.8464,-2.8474,-2.8492,-2.8506,-2.8529,-2.8503,-2.8536,-2.8537,-2.8531,-2.8574,-2.8579,-2.8616,-2.8561,-2.8562,-2.8562,0,-2.8297,-2.8316,-2.8359,-2.838,-2.839,-2.841,-2.8434,-2.8455,-2.8475,-2.8481,-2.8499,-2.8502,-2.8531,-2.8517,-2.8557,-2.8539,-2.8554,-2.8562,-2.8564,-2.8568,-2.8552,-2.858,-2.8628,-2.8633,-2.8571,-2.857,-2.857,0,-2.8322,-2.836,-2.839,-2.84,-2.8425,-2.844,-2.8451,-2.8471,-2.8486,-2.8508,-2.8518,-2.8543,-2.8557,-2.8577,-2.8588,-2.8576,-2.8628,-2.8614,-2.8635,-2.8634,-2.8646,-2.8645,-2.8697,-2.8654,-2.8654,-2.8654,-2.8654,0,-2.8363,-2.8389,-2.8402,-2.842,-2.845,-2.8458,-2.8487,-2.8498,-2.8516,-2.8538,-2.854,-2.8561,-2.8573,-2.8596,-2.8604,-2.8637,-2.8643,-2.865,-2.8652,-2.865,-2.8649,-2.866,-2.8658,-2.8655,-2.8655,-2.8655,-2.8654,0,-2.8396,-2.8406,-2.8439,-2.8459,-2.8465,-2.8486,-2.8505,-2.8524,-2.8533,-2.8561,-2.8568,-2.8584,-2.8611,-2.8623,-2.8657,-2.8663,-2.87,-2.87,-2.8693,-2.8694,-2.8713,-2.8712,-2.8774,-2.8783,-2.8734,-2.8734,-2.8734,0,-2.8422,-2.8442,-2.8464,-2.8478,-2.8489,-2.8512,-2.8527,-2.8536,-2.8552,-2.8577,-2.8593,-2.862,-2.8642,-2.8685,-2.8701,-2.8727,-2.8728,-2.8748,-2.8732,-2.873,-2.8729,-2.8728,-2.8731,-2.8751,-2.8752,-2.8752,-2.8753,0,-2.8466,-2.847,-2.849,-2.8513,-2.8531,-2.855,-2.8568,-2.858,-2.8592,-2.861,-2.8637,-2.8654,-2.8688,-2.8715,-2.8742,-2.8755,-2.8757,-2.8757,-2.8764,-2.8762,-2.8757,-2.8761,-2.8701,-2.8756,-2.8756,-2.8755,-2.8755,-2.8755,-2.8497,-2.8514,-2.8533,-2.8556,-2.8571,-2.8588,-2.8607,-2.8618,-2.864,-2.8668,-2.8672,-2.8701,-2.8722,-2.8758,-2.8772,-2.8796,-2.8792,-2.88,-2.8803,-2.8805,-2.8806,-2.8753,-2.8801,-2.8801,-2.8801,-2.8801,-2.8801,0,-2.8542,-2.8553,-2.8575,-2.86,-2.8618,-2.8616,-2.8637,-2.8653,-2.8678,-2.8697,-2.8718,-2.8749,-2.8776,-2.8793,-2.882,-2.8836,-2.8837,-2.8843,-2.8842,-2.8845,-2.8809,-2.8801,-2.8841,-2.8841,-2.8841,-2.8841,-2.8841,-2.8841,-2.8567,-2.8597,-2.8603,-2.8641,-2.8653,-2.868,-2.8692,-2.8708,-2.8723,-2.8758,-2.8779,-2.879,-2.8808,-2.8837,-2.8861,-2.8866,-2.8876,-2.8882,-2.8886,-2.8852,-2.8848,-2.8844,-2.8837,-2.8884,-2.8884,-2.8921,-2.8921,-2.8921]}]]